Location: Oakhurst
(33.6448°N, 111.9543°W)
Time: 14:32:13
(UTC+00:00)

SPROUT - Pass Details

Date: 31 July 2021
Orbit: 597 x 607 km, 97.9° (Epoch: 21 September)

Event Time Altitude Azimuth Distance (km) Brightness Sun altitude
Exits shadow 07:34:54 12° 10° (N) 1,811 ? -38.2°
Drops below altitude 10° 07:35:14 10° 8° (N) 1,938 ? -38.2°
Sets 07:37:32 0° 359° (N) 2,844 ? -38.2°
